Weather History for Martha's Vineyard, MA

Change the Weather History Date:

Sunday, December 9, 2012

  Actual Average Record
Temperature  
Mean Temperature 46 °F -  
Max Temperature 50 °F 44 °F 57 °F (1974)
Min Temperature 43 °F 29 °F 9 °F (2008)
Degree Days  
Heating Degree Days 18    
Moisture  
Dew Point 42 °F    
Average Humidity 85    
Maximum Humidity 100    
Minimum Humidity 52    
Precipitation  
Precipitation 0.16 in - - ()
Sea Level Pressure  
Sea Level Pressure 30.17 in    
Wind  
Wind Speed 9 mph (NNE)    
Max Wind Speed 17 mph    
Max Gust Speed 24 mph    
Visibility 8 miles    
Events Rain    
Averages and records for this station are not official NWS values.
T = Trace of Precipitation, MM = Missing Value Source: NWS Daily Summary

Daily Weather History Graph

Daily Weather History Graph

Search for Another Location

Airport:

Trip Planner

Search our weather history database for the weather conditions in past years. The results will help you decide how hot, cold, wet, or windy it might be!

Date:

Astronomy

Dec. 09, 2012 Rise Set
Actual Time 6:57 AM EST 4:12 PM EST
Civil Twilight 6:25 AM EST 4:44 PM EST
Nautical Twilight 5:51 AM EST 5:18 PM EST
Astronomical Twilight 5:17 AM EST 5:52 PM EST
Moon 2:24 AM EST (12/9) 1:19 PM EST (12/9)
Length of Visible Light 10h 18m
Length of Day
9h 15m
Waning Crescent, 19% of the Moon is Illuminated
Dec 9
Waning Crescent
Dec 13
New
Dec 20
First Quarter
Dec 28
Full
Jan 4
Last Quarter

Hourly Weather History & Observations

Time (EST) Temp. Windchill Dew Point Humidity Pressure Visibility Wind Dir Wind Speed Gust Speed Precip Events Conditions
12:53 AM 48.9 °F - 48.0 °F 97% 30.00 in 6.0 mi West 8.1 mph - N/A   Overcast
1:53 AM 48.9 °F - 48.0 °F 97% 30.01 in 5.0 mi West 6.9 mph - N/A   Overcast
2:53 AM 48.9 °F - 48.0 °F 97% 30.04 in 4.0 mi West 10.4 mph - N/A   Overcast
3:53 AM 48.9 °F - 48.0 °F 97% 30.06 in 4.0 mi West 9.2 mph - N/A   Overcast
4:53 AM 48.0 °F - 46.9 °F 96% 30.08 in 5.0 mi WNW 8.1 mph - N/A   Overcast
5:15 AM 46.4 °F 42.4 °F 46.4 °F 100% 30.08 in 5.0 mi NW 8.1 mph - N/A   Mostly Cloudy
5:53 AM 46.9 °F - 46.9 °F 100% 30.11 in 5.0 mi WNW 4.6 mph - N/A   Overcast
6:53 AM 45.0 °F 41.8 °F 45.0 °F 100% 30.14 in 5.0 mi NW 5.8 mph - N/A   Clear
7:53 AM 46.9 °F - 43.0 °F 86% 30.17 in 10.0 mi NNW 8.1 mph - N/A   Scattered Clouds
8:53 AM 46.9 °F - 41.0 °F 80% 30.22 in 10.0 mi North 5.8 mph - N/A   Mostly Cloudy
9:53 AM 48.9 °F - 39.0 °F 69% 30.22 in 10.0 mi North 16.1 mph - N/A   Clear
10:53 AM 50.0 °F - 37.9 °F 63% 30.22 in 10.0 mi NNE 12.7 mph 18.4 mph N/A   Clear
11:53 AM 48.9 °F - 37.0 °F 64% 30.21 in 10.0 mi NE 11.5 mph 19.6 mph N/A   Clear
12:53 PM 48.0 °F - 34.0 °F 58% 30.22 in 10.0 mi NNE 12.7 mph 19.6 mph N/A   Scattered Clouds
1:53 PM 46.9 °F - 30.0 °F 52% 30.22 in 10.0 mi NNE 12.7 mph - N/A   Scattered Clouds
2:53 PM 46.0 °F 41.9 °F 34.0 °F 63% 30.25 in 10.0 mi NE 8.1 mph - N/A   Overcast
3:53 PM 44.1 °F 40.8 °F 36.0 °F 73% 30.26 in 10.0 mi NE 5.8 mph - 0.00 in Rain Light Rain
4:53 PM 43.0 °F 39.5 °F 37.9 °F 82% 30.27 in 10.0 mi NNE 5.8 mph - 0.01 in Rain Light Rain
5:53 PM 44.1 °F 40.1 °F 41.0 °F 89% 30.26 in 10.0 mi ENE 6.9 mph - 0.01 in Rain Light Rain
6:53 PM 45.0 °F 40.6 °F 42.1 °F 90% 30.26 in 10.0 mi East 8.1 mph - 0.01 in Rain Light Rain
7:53 PM 45.0 °F 41.8 °F 42.1 °F 90% 30.26 in 10.0 mi East 5.8 mph - 0.02 in Rain Light Rain
8:53 PM 45.0 °F 40.1 °F 42.1 °F 90% 30.24 in 10.0 mi East 9.2 mph - 0.02 in Rain Light Rain
9:53 PM 45.0 °F 40.1 °F 42.1 °F 90% 30.20 in 10.0 mi East 9.2 mph - 0.01 in   Overcast
10:53 PM 45.0 °F 38.9 °F 43.0 °F 93% 30.18 in 10.0 mi East 12.7 mph 19.6 mph 0.01 in   Overcast
11:46 PM 44.6 °F 37.2 °F 44.6 °F 100% 30.13 in 8.0 mi ESE 17.3 mph 23.0 mph 0.06 in Rain Light Rain
11:53 PM 45.0 °F 37.6 °F 44.1 °F 97% 30.13 in 6.0 mi ESE 17.3 mph 24.2 mph 0.07 in Rain Rain